Regional Weather Roundup
Issued by NWS

Home | Current Version | Previous Version | Text Only | Print | Product List | Glossary On
Versions: 1 2 3 4 5 6 7 8 9 10 11 12 13 14 15 16 17 18 19 20 21 22 23 24 25 26 27 28 29 30 31 32 33 34 35 36 37 38 39 40 41 42 43 44 45 46 47 48 49 50
179
ASCA42 TJSJ 251610
RWRPR
PUERTO RICO/U.S. VIRGIN ISLANDS HOURLY WEATHER ROUNDUP
NATIONAL WEATHER SERVICE SAN JUAN PR
1200 PM AST MON JUL 25 2016

PRZ001-004-251700-
PUERTO RICO

CITY           SKY/WX    TMP DP  RH WIND       PRES   REMARKS
SAN JUAN LMM   MOSUNNY   90  75  62 E14       30.03S HX 100
AGUADILLA      MOSUNNY   88  75  66 E17       30.05S HX  97
CEIBA          SUNNY     88  75  66 E12       30.06S HX  97
$$

PRZ006-007-251700-
U.S. VIRGIN ISLANDS

CITY           SKY/WX    TMP DP  RH WIND       PRES   REMARKS
CHARLOTTE AMA  LGT RAIN  84  79  84 SE10      30.03R HX  96
CHRISTIANSTED  MOSUNNY   90  75  62 E16G22    30.02F HX 100
$$

HOURLY WEATHER ROUNDUP FOR THE NEWS MEDIA

CITY           SKY/WX    TMP DP  RH WIND       PRES   REMARKS
ORLANDO        MOSUNNY   88  71  57 SE8       30.09F HX  94
NEW YORK       PTSUNNY   82  71  69 S16       29.93F
NEWARK         PTSUNNY   88  71  57 SW9       29.90F HX  94
CHICAGO        CLOUDY    82  64  54 N9        30.00S
HARTFORD       SUNNY     89  71  55 SW12      29.91F HX  95
BOSTON         PTSUNNY   79  65  62 E12       29.90F
DALLAS         CLOUDY    87  73  62 CALM      29.98S HX  94
PHILADELPHIA   MOSUNNY   88  75  65 VRB7      29.93F HX  97
LOS ANGELES    MOSUNNY   77  65  66 CALM      29.98R
WASHINGTON DC  PTSUNNY   94  72  48 S3        29.96F HX 102



USA.gov is the U.S. government's official web portal to all federal, state and local government web resources and services.